Weather History for K1V4 - May, 2013

Change the Weather History Date:

Tuesday, May 28, 2013

  Actual Average Record
Temperature  
Mean Temperature 54 °F 60 °F  
Max Temperature 72 °F 72 °F 93 °F (1978)
Min Temperature 35 °F 48 °F 30 °F (1994)
Degree Days  
Heating Degree Days 12 6  
Month to date heating degree days 269  
Since 1 July heating degree days 7688  
Growing Degree Days 4 (Base 50)    
Moisture  
Dew Point 38 °F    
Average Humidity 62    
Maximum Humidity 100    
Minimum Humidity 24    
Precipitation  
Precipitation 0.00 in 0.12 in 1.50 in (1951)
Month to date precipitation 4.45 3.01  
Year to date precipitation 12.19 13.06  
Sea Level Pressure  
Sea Level Pressure 30.18 in    
Wind  
Wind Speed - (North)    
Max Wind Speed -    
Max Gust Speed -    
T = Trace of Precipitation, MM = Missing Value Source: NWS Daily Summary

Daily Weather History Graph

Daily Weather History Graph

Search for Another Location

Airport or City:

Trip Planner

Search our weather history database for the weather conditions in past years. The results will help you decide how hot, cold, wet, or windy it might be!

Date:

Astronomy

May. 28, 2013 Rise Set
Actual Time 5:09 AM EDT 8:22 PM EDT
Civil Twilight 4:33 AM EDT 8:57 PM EDT
Nautical Twilight 3:47 AM EDT 9:43 PM EDT
Astronomical Twilight 2:52 AM EDT 10:40 PM EDT
Moon 11:38 PM EDT (5/28) 8:57 AM EDT (5/28)
Length of Visible Light 16h 24m
Length of Day
15h 13m
Waning Gibbous, 83% of the Moon is Illuminated
May 28
Waning Gibbous
May 31
Last Quarter
Jun 8
New
Jun 16
First Quarter
Jun 23
Full

Hourly Weather History & Observations

Time (EDT) Temp. Dew Point Humidity Pressure Visibility Wind Dir Wind Speed Gust Speed Precip Events Conditions
12:54 AM 39.9 °F 37.9 °F 93% 30.19 in - North - - N/A   Unknown
1:54 AM 39.0 °F 37.0 °F 93% 30.20 in - North - - N/A   Unknown
2:54 AM 37.9 °F 36.0 °F 93% 30.20 in - North - - N/A   Unknown
3:54 AM 37.0 °F 36.0 °F 96% 30.21 in - North - - N/A   Unknown
4:54 AM 36.0 °F 35.1 °F 97% 30.23 in - North - - N/A   Unknown
5:54 AM 36.0 °F 36.0 °F 100% 30.24 in - North - - N/A   Unknown
6:54 AM 35.1 °F 35.1 °F 100% 30.26 in - North - - N/A   Unknown
7:54 AM 37.9 °F 37.0 °F 97% 30.25 in - North - - N/A   Unknown
8:54 AM 46.9 °F 37.9 °F 71% 30.24 in - North - - N/A   Unknown
9:54 AM 55.0 °F 39.9 °F 57% 30.22 in - North - - N/A   Unknown
10:54 AM 63.0 °F 36.0 °F 37% 30.21 in - North - - N/A   Unknown
11:54 AM 66.9 °F 33.1 °F 28% 30.20 in - North - - N/A   Unknown
12:54 PM 68.0 °F 30.9 °F 25% 30.18 in - North - - N/A   Unknown
1:54 PM 69.1 °F 32.0 °F 25% 30.17 in - North - - N/A   Unknown
2:54 PM 70.0 °F 32.0 °F 25% 30.15 in - North - - N/A   Unknown
3:54 PM 71.1 °F 36.0 °F 28% 30.14 in - North - - N/A   Unknown
4:54 PM 72.0 °F 37.9 °F 29% 30.12 in - North - - N/A   Unknown
5:54 PM 71.1 °F 37.0 °F 29% 30.10 in - North - - N/A   Unknown
6:54 PM 70.0 °F 39.9 °F 33% 30.10 in - North - - N/A   Unknown
7:54 PM 66.0 °F 44.1 °F 45% 30.11 in - North - - N/A   Unknown
8:54 PM 60.1 °F 46.9 °F 62% 30.11 in - North - - N/A   Unknown
9:54 PM 57.0 °F 48.0 °F 72% 30.12 in - North - - N/A   Unknown
10:54 PM 55.0 °F 46.0 °F 72% 30.13 in - North - - N/A   Unknown
11:54 PM 53.1 °F 46.9 °F 80% 30.13 in - North - - N/A   Unknown